ARIANE 5 DEB [SYLDA] (44336 NORAD) Tracking and Keplerian Element Data

This shows tracking and keplerian element data for the satellite.

Feedback or suggestion? Click here.




ElementValue
Catalog44336
NameARIANE 5 DEB [SYLDA]
Epoch Orbit59
Epoch Day197.85354173
Epoch Year2019
RAAN50.8501
Inclination6.0592
Eccentricity0.7271894
Argument of Perigee198.9085
Mean Anonmoly105.1306
Mean Motion2.28780856
Decay Rate5.816E-05
L11 44336U 19034D 19197.85354173 .00005816 00000-0 19683-2 0 9999
L22 44336 6.0592 50.8501 7271894 198.9085 105.1306 2.28780856 597

Live tracking and technical data element details for ARIANE 5 DEB [SYLDA] (NORAD 44336). ARIANE 5 DEB [SYLDA] can be tracked NOW for your location showing map with azimuth and elevation plus other details from your city location.

Track the satellite on the map from your city or location and see movement details for azimuth, elevation, latitude, longitude, range, height, and movement on the map or in text.







IsCatalogInMostPopularTable: catalog: 44336, numindb: 10
Update: records affected: 1



GetName: 44336 ARIANE 5 DEB [SYLDA]

Hit Count: updated at: Fri, 19 Jul 2019 08:29:47 GMT